{"data":{"norad_id":39208,"intl_designator":"2013-037A","name":"SHIYAN-7 (SY-7)","alt_names":[],"object_type":"PAYLOAD","status":"ACTIVE","operator":null,"country":"PRC","launch_date":"2013-07-19","launch_site_code":"TAISC","launch_vehicle":null,"mission":null,"orbit_class":"UNKNOWN","rcs_meters":1.8615,"size_class":null,"mass_kg":null,"dimensions":null,"purposes":[],"wikipedia_slug":null,"has_3d_model":false,"image_url":null,"decayed_at":null,"tle_current":{"epoch":"2026-09-19T18:36:49.187520Z","epoch_age_seconds":96223,"freshness":"FRESH","line1":"1 39208U 13037A   26262.77556930  .00000284  00000+0  52849-4 0  9991","line2":"2 39208  98.0940 265.5868 0007360 195.2265 164.8721 14.72373555706127","mean_motion":14.72373555,"eccentricity":0.000736,"inclination_deg":98.094,"raan_deg":265.5868,"arg_perigee_deg":195.2265,"mean_anomaly_deg":164.8721,"bstar":5.2849e-5,"rev_number":70612,"period_min":97.801267559441,"perigee_km":648.32567901831,"apogee_km":658.67625010214,"semimajor_km":7031.6379645602,"source":"CELESTRAK","updated_at":"2026-09-20T09:00:13.916181Z"}}}